Regional Weather Roundup
Issued by NWS Charleston, WV

Home | Current Version | Previous Version | Text Only | Print | Product List | Glossary Off
Versions: 1 2 3 4 5 6 7 8 9 10 11 12 13 14 15 16 17 18 19 20 21 22 23 24 25 26 27 28

000
ASUS41 KRLX 200410
RWRRLX
West Virginia Regional Weather Roundup
National Weather Service Charleston WV
1200 AM EDT SUN MAY 20 2018

Note: "fair" indicates few or no clouds below 12,000 feet with no
significant weather and/or obstructions to visibility.

WVZ003-200500-
Northern Panhandle of West Virginia

CITY           SKY/WX    TMP DP  RH WIND       PRES   REMARKS
WHEELING       LGT RAIN  67  64  90 SW7       29.99R
$$

WVZ009-200500-
Northwest West Virginia

CITY           SKY/WX    TMP DP  RH WIND       PRES   REMARKS
PARKERSBURG    MOCLDY    68  65  90 SW6       30.03R
$$

WVZ006-200500-
Western West Virginia

CITY           SKY/WX    TMP DP  RH WIND       PRES   REMARKS
HUNTINGTON     FAIR      68  65  90 S8        30.03R
$$

WVZ015-200500-
West Central West Virginia

CITY           SKY/WX    TMP DP  RH WIND       PRES   REMARKS
CHARLESTON     FAIR      67  65  93 SW6       30.04R
$$

WVZ022-031-200500-
North Central West Virginia

CITY           SKY/WX    TMP DP  RH WIND       PRES   REMARKS
CLARKSBURG     MOCLDY    68  64  87 S6        30.03R
MORGANTOWN     CLOUDY    67  66  97 S5        30.02S
$$

WVZ025-035-042-045-200500-
Southern West Virginia

CITY           SKY/WX    TMP DP  RH WIND       PRES   REMARKS
BECKLEY        FAIR      62  61  96 W3        30.13R
LOGAN          MOCLDY    64  64 100 CALM      30.08S
BLUEFIELD      MOCLDY    61  61 100 SW6       30.16S
LEWISBURG      FAIR      64  63  97 S3        30.13R
$$

WVZ047-200500-
Northern Mountains of West Virginia

CITY           SKY/WX    TMP DP  RH WIND       PRES   REMARKS
ELKINS         MOCLDY    64  61  90 S7        30.08R
$$

WVZ052-200500-
Eastern Panhandle of West Virginia

CITY           SKY/WX    TMP DP  RH WIND       PRES   REMARKS
MARTINSBURG    MOCLDY    61  60  97 CALM      30.01F FOG
PETERSBURG     LGT RAIN  60  59  97 NW3       30.04R
$$




USA.gov is the U.S. government's official web portal to all federal, state and local government web resources and services.